This demonstration page uses our WeatherBlox Daily Observations layout. Learn more.

39.92423, -83.80882

Hourly Observations for September 17, 2017

Temp ( °F °C ) Dew Point ( °F °C ) Humidity (%) Winds ( mph kmh ) Pressure ( in mb ) Visibility ( mi km ) Precip ( " mm )
12:56 am 00:56 Clear 58 14.4 57 13.9 97 97 Calm 30.15 1021 9 14.484096 0 0
1:56 am 01:56 Clear with Mist and Fog 56 13.3 56 13.3 100 100 E 3 6 30.12 1020 6 9.656064 0 0
2:21 am 02:21 Clear with Mist and Fog 57 14 55 13 94 94 E 3 6 30.15 1021 2 3.218688 0 0
2:36 am 02:36 Clear with Mist and Fog 57 14 55 13 94 94 E 3 6 30.15 1021 6 9.656064 0 0
2:56 am 02:56 Clear with Mist and Fog 57 13.9 56 13.3 96 96 Calm 30.12 1020 3 4.828032 0 0
2:58 am 02:58 Clear with Mist and Fog 57 14 55 13 94 94 Calm 30.15 1021 1.75 2.816352 0 0
3:08 am 03:08 Clear with Mist and Fog 57 14 55 13 94 94 E 3 6 30.15 1021 3 4.828032 0 0
3:11 am 03:11 Clear with Mist and Fog 57 14 55 13 94 94 E 3 6 30.15 1021 1 1.609344 0 0
3:13 am 03:13 Clear with Fog 55 13 55 13 100 100 E 3 6 30.15 1021 0.5 0.804672 0 0
3:21 am 03:21 Clear with Fog 55 13 54 12 94 94 E 3 6 30.15 1021 0.25 0.402336 0 0
3:24 am 03:24 Clear with Mist and Fog 55 13 54 12 94 94 E 5 7 30.15 1021 0.75 1.207008 0 0
3:28 am 03:28 Mostly Cloudy with Mist and Fog 55 13 54 12 94 94 E 3 6 30.15 1021 1 1.609344 0 0
3:38 am 03:38 Mostly Clear with Mist and Fog 55 13 54 12 94 94 E 3 6 30.15 1021 2 3.218688 0 0
3:46 am 03:46 Mostly Clear with Mist and Fog 55 13 55 13 100 100 Calm 30.15 1021 4 6.437376 0 0
3:56 am 03:56 Mostly Clear with Mist and Fog 56 13.3 55 12.8 97 97 E 3 6 30.12 1020 1.5 2.414016 0 0
3:59 am 03:59 Mostly Cloudy with Fog 55 13 55 13 100 100 E 3 6 30.15 1021 0.5 0.804672 0 0
4:08 am 04:08 Mostly Cloudy with Fog 55 13 54 12 94 94 E 3 6 30.12 1020 0.25 0.402336 0 0
4:29 am 04:29 Mostly Cloudy with Mist and Fog 54 12 54 12 100 100 E 3 6 30.12 1020 0.75 1.207008 0 0
4:35 am 04:35 Mostly Cloudy with Fog 54 12 54 12 100 100 E 5 7 30.12 1020 0.25 0.402336 0 0
4:54 am 04:54 Mostly Cloudy with Mist and Fog 54 12 54 12 100 100 E 3 6 30.12 1020 0.75 1.207008 0 0
4:55 am 04:55 Mostly Cloudy with Mist and Fog 54 12.2 54 12.2 100 100 E 3 6 30.12 1020 0.75 1.207008 0 0
5:09 am 05:09 Mostly Cloudy with Fog 55 13 54 12 94 94 E 3 6 30.12 1020 0.25 0.402336 0 0
5:25 am 05:25 Mostly Cloudy with Fog 55 13 55 13 100 100 Calm 30.12 1020 0.5 0.804672 0 0
5:43 am 05:43 Clear with Fog 55 13 54 12 94 94 Calm 30.12 1020 0.5 0.804672 0 0
5:56 am 05:56 Clear with Fog 55 12.8 54 12.2 96 96 E 3 6 30.12 1020 0.5 0.804672 0 0
6:04 am 06:04 Mostly Cloudy with Fog 52 11 52 11 100 100 E 3 6 30.15 1021 0.25 0.402336 0 0
6:10 am 06:10 Mostly Cloudy with Mist and Fog 52 11 52 11 100 100 Calm 30.18 1022 0.75 1.207008 0 0
6:12 am 06:12 Mostly Cloudy with Mist and Fog 52 11 52 11 100 100 Calm 30.18 1022 1.25 2.01168 0 0
6:15 am 06:15 Mostly Cloudy with Mist and Fog 54 12 54 12 100 100 Calm 30.15 1021 0.75 1.207008 0 0
6:21 am 06:21 Mostly Cloudy with Fog 54 12 54 12 100 100 Calm 30.15 1021 0.25 0.402336 0 0
6:49 am 06:49 Clear with Fog 54 12 54 12 100 100 Calm 30.15 1021 0.5 0.804672 0 0
6:56 am 06:56 Mostly Cloudy with Mist and Fog 54 12.2 54 12.2 100 100 Calm 30.12 1020 0.75 1.207008 0 0
6:58 am 06:58 Mostly Clear with Mist and Fog 54 12 54 12 100 100 Calm 30.15 1021 1.25 2.01168 0 0
7:08 am 07:08 Mostly Cloudy with Mist and Fog 54 12 54 12 100 100 Calm 30.15 1021 0.75 1.207008 0 0
7:15 am 07:15 Mostly Cloudy with Fog 54 12 54 12 100 100 Calm 30.15 1021 0.5 0.804672 0 0
7:18 am 07:18 Mostly Cloudy with Mist and Fog 54 12 54 12 100 100 Calm 30.15 1021 1 1.609344 0 0
7:20 am 07:20 Mostly Cloudy with Fog 55 13 54 12 94 94 Calm 30.15 1021 0.5 0.804672 0 0
7:28 am 07:28 Mostly Cloudy with Fog 55 13 54 12 94 94 Calm 30.18 1022 0.25 0.402336 0 0
7:38 am 07:38 Mostly Cloudy with Mist and Fog 55 13 54 12 94 94 Calm 30.18 1022 1 1.609344 0 0
7:45 am 07:45 Partly Cloudy with Mist and Fog 54 12 54 12 100 100 Calm 30.18 1022 1.25 2.01168 0 0
7:48 am 07:48 Mostly Cloudy with Fog 54 12 54 12 100 100 Calm 30.18 1022 0.5 0.804672 0 0
7:56 am 07:56 Partly Cloudy with Mist and Fog 54 12.2 54 12.2 100 100 Calm 30.15 1021 1.25 2.01168 0 0
7:58 am 07:58 Sunny with Mist and Fog 54 12 54 12 100 100 Calm 30.18 1022 6 9.656064 0 0
8:56 am 08:56 Sunny 62 16.7 61 16.1 96 96 E 3 6 30.15 1021 7 11.265408 0 0
9:56 am 09:56 Mostly Sunny 71 21.7 64 17.8 79 79 Calm 30.18 1022 9 14.484096 0 0
10:56 am 10:56 Mostly Sunny 75 23.9 63 17.2 66 66 Calm 30.15 1021 10 16.09344 0 0
11:56 am 11:56 Sunny 78 25.6 61 16.1 56 56 N 5 7 30.15 1021 10 16.09344 0 0
12:56 pm 12:56 Sunny 80 26.7 61 16.1 52 52 NE 3 6 30.12 1020 10 16.09344 0 0
1:56 pm 13:56 Mostly Sunny 81 27.2 60 15.6 49 49 N 3 6 30.12 1020 10 16.09344 0 0
2:56 pm 14:56 Partly Cloudy 81 27.2 60 15.6 49 49 N 3 6 30.09 1019 10 16.09344 0 0
3:56 pm 15:56 Partly Cloudy 82 27.8 60 15.6 47 47 Calm 30.09 1019 10 16.09344 0 0
4:56 pm 16:56 Partly Cloudy 83 28.3 60 15.6 46 46 W 3 6 30.06 1018 10 16.09344 0 0
5:56 pm 17:56 Sunny 81 27.2 59 15 47 47 Calm 30.06 1018 10 16.09344 0 0
6:56 pm 18:56 Sunny 79 26.1 59 15 50 50 Calm 30.06 1018 10 16.09344 0 0
7:56 pm 19:56 Clear 73 22.8 61 16.1 66 66 Calm 30.06 1018 10 16.09344 0 0
8:56 pm 20:56 Clear 66 18.9 62 16.7 87 87 E 7 11 30.09 1019 10 16.09344 0 0
9:56 pm 21:56 Clear 62 16.7 60 15.6 93 93 E 3 6 30.09 1019 10 16.09344 0 0
10:56 pm 22:56 Clear 64 17.8 59 15 84 84 SSE 7 11 30.09 1019 10 16.09344 0 0
11:56 pm 23:56 Clear 64 17.8 59 15 84 84 SSE 5 7 30.09 1019 10 16.09344 0 0

Powered by AerisWeather